Zurück zum Katalog

STARLINK-32290

AktivKommunikationVLEO
NORAD 60359·PAYLOAD·🇺🇸 United States

Gestartet Aug 4, 2024 von Vandenberg Space Force Base

Loading…

Nächste Überflüge (nächste 24 Stunden)

TLE

AktuellSource: CelesTrak SupGP

Epoche: Sep 14, 2026, 21:28 UTC

1 60359C 24138E   26257.89493056 -.00060378  00000+0 -17834-2 0  2574
2 60359  53.1580 149.6516 0001166  94.1879 191.0220 15.34429606    17

Verfolge STARLINK-32290 in Echtzeit mit AllMySat

Download on the App Store